This is the latest recevied weather packets stored in our database for station/object WX6HNX-6. If no packets are shown the sender has not sent any weather packets the latest 10 day(s).
| Time | Temp. | Humidity | Pressure | Rain* | Wind** | Luminosity | Snow |
|---|---|---|---|---|---|---|---|
| 1778005705 | 17.22° C | 66% | 1015.7 hPa | 0 mm | - | - | - |
| 1778005405 | 17.78° C | 67% | 1015.7 hPa | 0 mm | - | - | - |
| 1778005105 | 17.78° C | 65% | 1015.8 hPa | 0 mm | - | - | - |
| 1778004644 | 17.22° C | 65% | 1015.7 hPa | 0 mm | - | - | - |
| 1778004343 | 17.22° C | 66% | 1015.7 hPa | 0 mm | - | - | - |
| 1778004043 | 17.22° C | 66% | 1015.7 hPa | 0 mm | - | - | - |
| 1778003743 | 16.67° C | 67% | 1015.6 hPa | 0 mm | - | - | - |
| 1778003443 | 16.67° C | 67% | 1015.8 hPa | 0 mm | - | - | - |
| 1778003143 | 16.67° C | 68% | 1015.8 hPa | 0 mm | - | - | - |
| 1778002843 | 16.67° C | 68% | 1015.7 hPa | 0 mm | - | - | - |
| 1778002543 | 16.67° C | 68% | 1015.6 hPa | 0 mm | - | - | - |
| 1778002244 | 16.67° C | 69% | 1015.6 hPa | 0 mm | - | - | - |
| 1778001943 | 16.67° C | 70% | 1015.6 hPa | 0 mm | - | - | - |
| 1778001643 | 16.11° C | 71% | 1015.6 hPa | 0 mm | - | - | - |
| 1778001345 | 16.11° C | 71% | 1015.4 hPa | 0 mm | - | - | - |
| 1778001042 | 16.11° C | 71% | 1015.4 hPa | 0 mm | - | - | - |
| 1778000743 | 16.11° C | 72% | 1015.4 hPa | 0 mm | - | - | - |
| 1778000443 | 15.56° C | 73% | 1015.4 hPa | 0 mm | - | - | - |
| 1778000143 | 15.56° C | 74% | 1015.4 hPa | 0 mm | - | - | - |
| 1777999843 | 15.56° C | 74% | 1015.5 hPa | 0 mm | - | - | - |
| 1777999543 | 15.56° C | 74% | 1015.5 hPa | 0 mm | - | - | - |
| 1777999008 | 15° C | 74% | 1015.5 hPa | 0 mm | - | - | - |
| 1777998708 | 15° C | 75% | 1015.5 hPa | 0 mm | - | - | - |
| 1777998408 | 15° C | 75% | 1015.4 hPa | 0 mm | - | - | - |
| 1777998108 | 15° C | 76% | 1015.4 hPa | 0 mm | - | - | - |
* Rain latest hour (hover to see other rain measurements)
** Current wind speed in m/s (hover to see current wind gust speed)